X  Close Possible light rain starting this evening, continuing until tomorrow afternoon.
Conditions Temperature Feels Precipitation Wind Wind Direction UV index Pressure
13:00 cloudy Overcast 19° 0.02 mm 3% 7-7 mph East Easterly uv-4 1014,5
14:00 cloudy Overcast 19° 0.01 mm 5% 8-8 mph ESE ESE uv-4 1013,9
15:00 cloudy Overcast 20° 0.06 mm 12% 9-9 mph ESE ESE uv-3 1013,2
16:00 cloudy Overcast 20° 0.12 mm 23% 9-10 mph ESE ESE uv-3 1012,5
17:00 rain Possible Drizzle 19° 0.2 mm 32% 10-12 mph ESE ESE uv-2 1011,9
18:00 cloudy Overcast 19° 0.06 mm 17% 10-11 mph ESE ESE uv-1 1011,2
19:00 cloudy Overcast 18° 0.04 mm 10% 9-10 mph SE SE uv-1 1010,7
20:00 cloudy Overcast 18° 0.03 mm 10% 8-9 mph SE SE - 1010,4
21:00 cloudy Overcast 17° 0.04 mm 11% 7-9 mph SE SE - 1010,3
22:00 partly-cloudy-night Mostly Cloudy 16° 0.06 mm 15% 7-11 mph SE SE - 1010,0
23:00 partly-cloudy-night Mostly Cloudy 15° 0.1 mm 25% 6-10 mph SE SE - 1009,5
00:00 rain Possible Drizzle 15° 0.1 mm 27% 6-11 mph SE SE - 1009,1
01:00 rain Possible Drizzle 15° 0.15 mm 39% 7-14 mph ESE ESE - 1008,2
02:00 rain Possible Light Rain 14° 0.24 mm 41% 7-15 mph ESE ESE - 1007,7
03:00 rain Possible Light Rain 14° 0.25 mm 35% 7-16 mph East Easterly - 1007,2
04:00 rain Possible Light Rain 14° 0.24 mm 27% 8-16 mph East Easterly - 1006,9
05:00 rain Possible Light Rain 13° 0.26 mm 25% 8-16 mph East Easterly - 1006,8
06:00 rain Possible Light Rain 13° 0.25 mm 28% 8-16 mph East Easterly - 1006,9
07:00 rain Possible Drizzle 13° 0.18 mm 25% 7-15 mph East Easterly - 1007,0
08:00 cloudy Overcast 14° 0.16 mm 22% 7-14 mph East Easterly uv-1 1007,2
09:00 cloudy Overcast 14° 0.13 mm 19% 7-13 mph ENE ENE uv-2 1007,3
10:00 cloudy Overcast 15° 0.1 mm 17% 7-12 mph ENE ENE uv-3 1007,4
11:00 cloudy Overcast 16° 0.11 mm 18% 7-11 mph ENE ENE uv-3 1007,5
12:00 cloudy Overcast 17° 0.18 mm 21% 7-10 mph ENE ENE uv-4 1007,5
13:00 cloudy Overcast 19° 0.18 mm 19% 8-13 mph East Easterly uv-4 1006,5
14:00 rain Possible Drizzle 20° 0.22 mm 27% 9-13 mph ENE ENE uv-4 1006,3
15:00 rain Possible Drizzle 20° 0.22 mm 31% 9-13 mph NE NE uv-4 1006,1
16:00 rain Possible Drizzle 19° 0.19 mm 30% 9-14 mph NE NE uv-3 1006,2
17:00 cloudy Overcast 19° 0.16 mm 23% 9-14 mph NE NE uv-2 1006,1
18:00 cloudy Overcast 18° 0.13 mm 17% 10-15 mph NE NE uv-1 1006,2
19:00 cloudy Overcast 18° 0.09 mm 13% 11-17 mph NE NE uv-1 1006,5
20:00 partly-cloudy-day Mostly Cloudy 17° 0.08 mm 12% 11-18 mph NE NE - 1006,8
21:00 partly-cloudy-day Mostly Cloudy 17° 0.13 mm 19% 12-19 mph NE NE - 1007,0
22:00 rain Possible Drizzle 16° 0.21 mm 28% 12-20 mph ENE ENE - 1007,5
23:00 rain Possible Light Rain 15° 0.26 mm 34% 13-20 mph ENE ENE - 1007,7
00:00 rain Possible Light Rain 15° 0.28 mm 34% 14-22 mph ENE ENE - 1007,8
01:00 rain Possible Light Rain 14° 0.3 mm 54% 12-13 mph NE NE - 1008,6
02:00 rain Possible Light Rain 13° 0.28 mm 54% 12-12 mph NE NE - 1008,6
03:00 rain Possible Light Rain 13° 0.24 mm 50% 12-12 mph NE NE - 1008,7
04:00 rain Possible Light Rain 12° 0.24 mm 46% 11-11 mph NE NE - 1008,8
05:00 rain Possible Light Rain 12° 0.26 mm 51% 11-12 mph NNE NNE - 1009,1
06:00 rain Possible Light Rain 12° 0.3 mm 54% 12-12 mph NNE NNE - 1009,4
07:00 rain Possible Light Rain 12° 0.39 mm 55% 16-24 mph ENE ENE - 1009,1
08:00 rain Possible Light Rain 13° 0.53 mm 61% 17-26 mph ENE ENE uv-1 1009,3
09:00 rain Light Rain 13° 0.78 mm 66% 17-27 mph NE NE uv-2 1009,7
10:00 rain Rain 13° 1 mm 68% 17-27 mph NE NE uv-3 1010,2
11:00 rain Rain 14° 1.1 mm 70% 18-28 mph NE NE uv-3 1010,5
12:00 rain Rain 14° 1.01 mm 74% 18-28 mph NE NE uv-4 1010,8
13:00 rain Rain 14° 1.13 mm 78% 18-30 mph NE NE uv-4 1011,3